Погода в Верхнебешкиле

Россия / Тюменская область     56°31′11″N   65°31′25″E
темп.,
°C
ветер,
м/с
пор.,
м/с
влажн.,
%
обл.,
%
осадки,
мм/ч
давл.,
гПа
погр.,
м
8 мая, сб
сб823:00+12юз33545 0.0 101935
02:00+11юз335810 0.0 101934
05:00+10юз22635 0.0 102011
08:00+15ю22477 0.0 1019231
11:00+20ююв233479 0.0 10191646
14:00+22ююв332782 0.0 10172484
17:00+21ю3226100 0.0 10162475
20:00+18ссз1136100 0.0 101611
9 мая, вс
вс923:00+15ссв1239100 0.0 101611
02:00+13св2244100 0.0 101610
05:00+12св3351100 0.0 101645
08:00+16в3443100 0.0 1017216
11:00+21в4630100 0.0 10161393
14:00+22в5625100 0.0 10162973
17:00+22в672999 0.0 10172697
20:00+17юв4855100 0.1 1018236
10 мая, пн
пн1023:00+14св336876 0.5 101933
02:00+12св4867100 0.0 1020162
05:00+11св4866100 0.0 1022173
08:00+13всв5949100 0.0 1023545
11:00+17всв5734100 0.0 10241309
14:00+19всв562994 0.0 10231699
17:00+20в45285 0.0 10231858
20:00+16ю224372 0.0 102314
11 мая, вт
вт1123:00+12з22460 0.0 102410
02:00+11з33510 0.0 102420
05:00+9зсз335517 0.0 102439
08:00+15з2344100 0.0 1024208
11:00+19з4433100 0.0 10231079
14:00+21з5531100 0.0 10221952
17:00+15сз5863100 0.1 1023350
20:00+13сз378588 0.6 1023362
12 мая, ср
ср1223:00+12ссз6117891 1.2 1023649
02:00+8сз4108917 0.0 1024438
05:00+7ссз6108557 0.0 1024528
08:00+9с7107038 0.0 1025791
11:00+14с710444 0.0 10251354
14:00+17с793084 0.0 10242020
17:00+17с6830100 0.0 10252155
20:00+14с4742100 0.0 1025130